This is the latest recevied weather packets stored in our database for station/object N7WSS. If no packets are shown the sender has not sent any weather packets the latest 10 day(s).
| Time | Temp. | Humidity | Pressure | Rain* | Wind** | Luminosity | Snow |
|---|---|---|---|---|---|---|---|
| 1788208405 | 20° C | 92% | 1017.4 hPa | 3.05 mm | - | - | - |
| 1788208103 | 20° C | 92% | 1017.6 hPa | 3.05 mm | - | - | - |
| 1788207799 | 20° C | 92% | 1017.9 hPa | 3.05 mm | - | - | - |
| 1788207498 | 20° C | 91% | 1018.3 hPa | 6.1 mm | - | - | - |
| 1788207197 | 20° C | 91% | 1018.5 hPa | 4.32 mm | - | - | - |
| 1788206893 | 20° C | 90% | 1018.7 hPa | 4.32 mm | - | - | - |
| 1788206588 | 20° C | 89% | 1018.9 hPa | 3.05 mm | - | - | - |
| 1788206283 | 20° C | 89% | 1019 hPa | 1.78 mm | - | - | - |
| 1788205979 | 20.56° C | 89% | 1019 hPa | 1.78 mm | - | - | - |
| 1788205674 | 20.56° C | 88% | 1018.9 hPa | 0 mm | - | - | - |
| 1788205369 | 20.56° C | 87% | 1018.9 hPa | 0 mm | - | - | - |
| 1788205063 | 20.56° C | 88% | 1019.1 hPa | 0 mm | - | - | - |
| 1788204759 | 20.56° C | 88% | 1019 hPa | 0 mm | - | - | - |
| 1788204459 | 20.56° C | 88% | 1019.1 hPa | 0 mm | - | - | - |
| 1788204154 | 20.56° C | 89% | 1019.1 hPa | 0 mm | - | - | - |
| 1788203850 | 20.56° C | 90% | 1019.5 hPa | 0 mm | - | - | - |
| 1788203547 | 20° C | 91% | 1019.6 hPa | 0 mm | - | - | - |
| 1788203247 | 20.56° C | 90% | 1019.3 hPa | 1.27 mm | - | - | - |
| 1788202947 | 20° C | 90% | 1019.2 hPa | 1.27 mm | - | - | - |
| 1788202641 | 20° C | 90% | 1019.1 hPa | 0 mm | - | - | - |
| 1788202337 | 20.56° C | 89% | 1018.9 hPa | 0 mm | - | - | - |
| 1788202036 | 20.56° C | 87% | 1019 hPa | 1.78 mm | - | - | - |
| 1788201732 | 21.11° C | 85% | 1018.9 hPa | 0 mm | - | - | - |
| 1788201432 | 21.11° C | 84% | 1018.7 hPa | 0 mm | - | - | - |
| 1788201132 | 21.11° C | 83% | 1018.4 hPa | 0 mm | - | - | - |
* Rain latest hour (hover to see other rain measurements)
** Current wind speed in m/s (hover to see current wind gust speed)